Torna al catalogo

STARLINK-30472

AttivoComunicazioniVLEO
NORAD 57901·PAYLOAD·🇺🇸 United States

Lanciato Sep 20, 2023 da Cape Canaveral Space Force Station

Loading…

Prossimi Passaggi (prossime 24 ore)

TLE

AggiornatoSource: CelesTrak SupGP

Epoca: Sep 15, 2026, 02:09 UTC

1 57901C 23146L   26258.09006944  .00045101  00000+0  16334-2 0  2580
2 57901  43.0018 321.0016 0001274 265.3229 122.0560 15.27558409    19

Traccia STARLINK-30472 in tempo reale con AllMySat

Download on the App Store